Weather History for KOLF - December, 2013

Change the Weather History Date:

Sunday, December 22, 2013

  Actual Average Record
Temperature  
Mean Temperature -12 °F -  
Max Temperature 4 °F 25 °F - ()
Min Temperature -29 °F 2 °F - ()
Degree Days  
Heating Degree Days 77    
Cooling Degree Days 0    
Moisture  
Dew Point -15 °F    
Average Humidity 76    
Maximum Humidity 83    
Minimum Humidity 69    
Precipitation  
Precipitation 0.00 in 0.01 in - ()
Month to date precipitation 0.10 0.20  
Year to date precipitation 13.34 12.08  
Sea Level Pressure  
Sea Level Pressure 30.43 in    
Wind  
Wind Speed 4 mph (WSW)    
Max Wind Speed 8 mph    
Max Gust Speed -    
Visibility 8 miles    
Events      
T = Trace of Precipitation, MM = Missing Value Source: NWS Daily Summary

Daily Weather History Graph

Daily Weather History Graph

Search for Another Location

Airport or City:

Trip Planner

Search our weather history database for the weather conditions in past years. The results will help you decide how hot, cold, wet, or windy it might be!

Date:

Astronomy

Dec. 22, 2013 Rise Set
Actual Time 7:50 AM MST 4:11 PM MST
Civil Twilight 7:13 AM MST 4:48 PM MST
Nautical Twilight 6:34 AM MST 5:28 PM MST
Astronomical Twilight 5:56 AM MST 6:06 PM MST
Moon 9:49 PM MST (12/22) 10:27 AM MST (12/22)
Length of Visible Light 9h 34m
Length of Day
8h 21m
Waning Gibbous, 76% of the Moon is Illuminated
Dec 22
Waning Gibbous
Dec 25
Last Quarter
Jan 1
New
Jan 7
First Quarter
Jan 15
Full

Hourly Weather History & Observations

Time (MST) Temp. Windchill Dew Point Humidity Pressure Visibility Wind Dir Wind Speed Gust Speed Precip Events Conditions
12:10 AM -18.0 °F -28.5 °F -23.1 °F 78% 30.11 in 7.0 mi WSW 3.5 mph - N/A   Partly Cloudy
12:53 AM -18.9 °F -29.5 °F -24.0 °F 78% 30.30 in 10.0 mi SSW 3.5 mph - N/A   Partly Cloudy
1:53 AM -18.9 °F -35.8 °F -24.0 °F 78% 30.32 in 10.0 mi SW 6.9 mph - N/A   Overcast
2:53 AM -17.0 °F -27.2 °F -22.0 °F 78% 30.33 in 10.0 mi SSW 3.5 mph - N/A   Partly Cloudy
3:53 AM -16.1 °F - -20.9 °F 79% 30.34 in 10.0 mi Calm Calm - N/A   Overcast
4:53 AM -15.0 °F - -20.0 °F 78% 30.36 in 10.0 mi Calm Calm - N/A   Overcast
5:53 AM -11.9 °F - -18.0 °F 74% 30.37 in 10.0 mi Calm Calm - N/A   Overcast
6:53 AM -11.0 °F -20.4 °F -17.0 °F 75% 30.40 in 10.0 mi SW 3.5 mph - N/A   Overcast
7:53 AM -11.0 °F -20.4 °F -17.0 °F 75% 30.43 in 10.0 mi SW 3.5 mph - N/A   Overcast
8:53 AM -11.9 °F - -17.0 °F 78% 30.46 in 10.0 mi Calm Calm - N/A   Mostly Cloudy
9:53 AM -8.0 °F - -11.9 °F 83% 30.47 in 7.0 mi Calm Calm - N/A   Overcast
10:38 AM -4.0 °F -14.6 °F -9.9 °F 76% 30.28 in 5.0 mi SW 4.6 mph - N/A   Haze
10:53 AM -4.0 °F -16.3 °F -9.0 °F 79% 30.49 in 7.0 mi WSW 5.8 mph - N/A   Overcast
11:24 AM -2.9 °F -15.0 °F -8.0 °F 79% 30.28 in 3.0 mi SW 5.8 mph - N/A   Haze
11:35 AM -2.0 °F -12.2 °F -8.0 °F 76% 30.28 in 2.5 mi SW 4.6 mph - N/A   Haze
11:44 AM -2.0 °F -13.9 °F -8.0 °F 76% 30.28 in 3.0 mi SW 5.8 mph - N/A   Haze
11:53 AM -0.9 °F -14.1 °F -7.1 °F 75% 30.47 in 3.0 mi SW 6.9 mph - N/A   Haze
12:11 PM -0.9 °F -11.0 °F -7.1 °F 75% 30.28 in 4.0 mi SSW 4.6 mph - N/A   Haze
12:31 PM -0.9 °F -12.7 °F -7.1 °F 75% 30.28 in 2.5 mi SW 5.8 mph - N/A   Haze
12:53 PM -0.0 °F -13.0 °F -6.0 °F 76% 30.47 in 4.0 mi SW 6.9 mph - N/A   Haze
1:13 PM 1.9 °F -11.8 °F -5.1 °F 72% 30.28 in 10.0 mi WSW 8.1 mph - N/A   Overcast
1:53 PM 3.0 °F -9.3 °F -5.1 °F 69% 30.47 in 7.0 mi West 6.9 mph - N/A   Overcast
2:07 PM 1.9 °F -10.6 °F -5.1 °F 72% 30.29 in 6.0 mi West 6.9 mph - N/A   Haze
2:24 PM 3.0 °F -9.3 °F -5.1 °F 69% 30.29 in 5.0 mi West 6.9 mph - N/A   Haze
2:53 PM 3.9 °F -8.2 °F -4.0 °F 70% 30.49 in 10.0 mi NW 6.9 mph - N/A   Overcast
3:53 PM -0.0 °F -11.6 °F -8.0 °F 69% 30.54 in 10.0 mi NNW 5.8 mph - N/A   Overcast
4:53 PM -5.1 °F -19.1 °F -13.0 °F 69% 30.57 in 10.0 mi NNW 6.9 mph - N/A   Mostly Cloudy
5:53 PM -11.0 °F -22.8 °F -17.0 °F 75% 30.60 in 10.0 mi NNW 4.6 mph - N/A   Clear
6:53 PM -11.0 °F - -18.0 °F 71% 30.62 in 10.0 mi Calm Calm - N/A   Clear
7:53 PM -16.1 °F -28.6 °F -20.0 °F 82% 30.66 in 10.0 mi SW 4.6 mph - N/A   Clear
8:53 PM -23.1 °F -36.8 °F -27.9 °F 78% 30.68 in 10.0 mi WSW 4.6 mph - N/A   Clear
9:53 PM -26.0 °F - -29.9 °F 81% 30.69 in 10.0 mi Calm Calm - N/A   Clear
10:53 PM -27.9 °F - -33.0 °F 77% 30.69 in 10.0 mi Calm Calm - N/A   Clear
11:53 PM -27.0 °F - -33.0 °F 73% 30.69 in 10.0 mi Calm Calm - N/A   Clear